Powrót do katalogu

COSMOS 2251 DEB

AktywnyLEO
NORAD 34965·DEBRIS·🇷🇺 Russia

Wystrzelony Jun 16, 1993 z Plesetsk Cosmodrome

Loading…

Następne Przeloty (najbliższe 24 godziny)

TLE

ŚwieżeSource: Space-Track

Epoka: Sep 14, 2026, 04:41 UTC

1 34965U 93036AEU 26257.19575448  .00000498  00000-0  13735-3 0  9996
2 34965  74.0532 332.5268 0025208  26.1481 334.0945 14.49230044911031

Śledź COSMOS 2251 DEB w czasie rzeczywistym z AllMySat

Download on the App Store